LARES-2

Last updated on Sun Jun 29 2025 00:03:33 GMT+0000 (Coordinated Universal Time)

1 53105U 22080A 25179.12617689 -.00000012 00000+0 00000+0 0 9992 2 53105 70.1504 66.7407 0004992 51.8271 308.2945 6.38965135 69047
UTC large
Height (km)
Speed (km/s)
/
Latitude / Longitude
Inclination (degrees)
Orbital Period (minutes)
Azimuth
Elevation
Range (km)
Doppler Factor

Next 0 passes for location: London (51.5072 / 0.1276)

Sorry there are no passes over London.